ZF1RC George Town KY current weather conditions

sailwx.info

Wind from 046 at 6 knots gusting 10

Air temperature 25.0° C
Dewpoint 16.1° C

Last reported at 2015-Jan-31 20:50 UTC.
Time now 2015-Jan-31 21:10 UTC

Location: N 19°16' W 081°23'.
View on Google Maps.

See reports from other nearby stations

  
Tides and Currents Weather Stations Pressure Air Temp Water Temp Dewpoint Dewpoint Depression Visibility Wind Speed Wind Dir Waves Ship Positions
date/time (UTC)wind fromknots sea level pressurealtimeterstation pressurevisibilityair tempwater tempwave heightnotes
2015-Jan-31 20:50 046 6 gusting 10 25.0
2015-Jan-31 20:40 046 4 gusting 10 25.6
2015-Jan-31 20:30 072 6 gusting 12 25.6
2015-Jan-31 20:20 087 7 gusting 12 25.6
2015-Jan-31 20:10 082 6 gusting 7 25.6
2015-Jan-31 20:00 066 6 gusting 11 25.0
2015-Jan-31 19:50 064 8 gusting 10 25.6
2015-Jan-31 19:40 082 6 gusting 8 25.6
2015-Jan-31 19:30 065 8 gusting 10 25.6
2015-Jan-31 19:20 038 6 gusting 10 25.6
2015-Jan-31 19:10 089 6 gusting 10 25.6
2015-Jan-31 19:00 052 8 gusting 11 25.6
2015-Jan-31 18:50 023 5 gusting 13 25.6
2015-Jan-31 18:40 039 6 gusting 11 25.6
2015-Jan-31 18:30 052 6 gusting 11 25.6
2015-Jan-31 18:20 046 9 gusting 11 25.6
2015-Jan-31 18:10 044 12 gusting 12 25.0
2015-Jan-31 18:00 081 7 gusting 8 25.6
2015-Jan-31 17:50 043 6 gusting 12 25.6
2015-Jan-31 17:40 046 7 gusting 11 25.0
2015-Jan-31 17:30 063 5 gusting 10 26.1
2015-Jan-31 17:20 124 4 gusting 12 25.6
2015-Jan-31 17:10 042 5 gusting 12 25.6
2015-Jan-31 17:00 029 8 gusting 12 25.0
2015-Jan-31 16:50 084 6 gusting 8 25.6
2015-Jan-31 16:40 065 5 gusting 6 24.4
2015-Jan-31 16:30 071 6 gusting 12 25.0
2015-Jan-31 16:20 060 4 gusting 8 25.6
2015-Jan-31 16:10 097 4 gusting 12 25.0
2015-Jan-31 16:00 039 10 gusting 12 25.6
2015-Jan-31 15:50 063 7 gusting 8 25.6
2015-Jan-31 15:40 077 6 gusting 7 25.6
2015-Jan-31 15:30 092 5 gusting 8 24.4
2015-Jan-31 15:20 040 5 gusting 8 24.4
2015-Jan-31 15:10 054 2 gusting 10 25.0
2015-Jan-31 15:00 060 2 gusting 12 24.4
2015-Jan-31 14:50 087 6 gusting 7 24.4
2015-Jan-31 14:40 045 3 gusting 6 23.3
2015-Jan-31 14:30 091 2 gusting 5 22.8
2015-Jan-31 14:20 057 4 gusting 5 22.8
2015-Jan-31 14:10 127 4 gusting 4 22.8
2015-Jan-31 14:00 063 2 gusting 4 22.8
2015-Jan-31 13:50 070 1 gusting 4 22.2
2015-Jan-31 13:40 104 2 gusting 4 22.2
2015-Jan-31 13:30 043 1 gusting 4 22.2
2015-Jan-31 13:20 092 2 gusting 6 22.8
2015-Jan-31 13:10 017 1 gusting 8 22.8
2015-Jan-31 13:00 048 5 gusting 7 22.8
2015-Jan-31 12:50 037 2 gusting 5 22.2
2015-Jan-31 12:40 070 2 gusting 2 21.7
2015-Jan-31 12:30 091 1 gusting 2 21.7
2015-Jan-31 12:20 071 0 gusting 2 21.7
2015-Jan-31 12:10 085 1 gusting 5 21.7
2015-Jan-31 12:00 072 3 gusting 4 21.7
2015-Jan-31 11:50 098 3 gusting 5 21.7
2015-Jan-31 11:40 040 1 gusting 6 22.2
2015-Jan-31 11:30 052 4 gusting 6 22.2
2015-Jan-31 11:20 064 4 gusting 10 22.2
2015-Jan-31 11:10 114 5 gusting 7 22.2
2015-Jan-31 11:00 057 2 gusting 5 22.2
2015-Jan-31 10:50 079 5 gusting 8 22.2
2015-Jan-31 10:40 071 3 gusting 5 22.2
2015-Jan-31 10:30 090 1 gusting 6 22.2
2015-Jan-31 10:20 058 4 gusting 6 22.2
2015-Jan-31 10:10 072 1 gusting 6 22.2
2015-Jan-31 10:00 060 4 gusting 6 22.2
2015-Jan-31 09:50 046 3 gusting 6 22.2
2015-Jan-31 09:40 044 7 gusting 7 22.2
2015-Jan-31 09:30 077 4 gusting 6 22.8
2015-Jan-31 09:20 073 4 gusting 6 22.2
2015-Jan-31 09:10 055 2 gusting 7 22.2
2015-Jan-31 09:00 044 2 gusting 6 22.8
2015-Jan-31 08:50 046 2 gusting 5 22.8
2015-Jan-31 08:40 030 2 gusting 2 22.2
2015-Jan-31 08:30 044 3 gusting 4 22.2
2015-Jan-31 08:20 060 1 gusting 5 21.7
2015-Jan-31 08:10 036 1 gusting 4 21.7
2015-Jan-31 08:00 065 21.7
2015-Jan-31 07:50 084 0 gusting 2 21.1
2015-Jan-31 07:40 051 1 gusting 1 21.1
2015-Jan-31 07:30 054 0 gusting 2 21.1
2015-Jan-31 07:20 059 0 gusting 1 21.1
2015-Jan-31 07:10 034 1 gusting 1 21.7
2015-Jan-31 07:00 074 0 gusting 1 22.2
2015-Jan-31 06:50 075 0 gusting 4 22.2
2015-Jan-31 06:40 085 3 gusting 5 22.2
2015-Jan-31 06:30 005 0 gusting 4 22.2
2015-Jan-31 06:20 094 2 gusting 2 22.2
2015-Jan-31 06:10 107 0 gusting 2 22.2
2015-Jan-31 06:00 071 1 gusting 1 22.2
2015-Jan-31 05:50 091 2 gusting 4 22.2
2015-Jan-31 05:40 095 2 gusting 4 22.8
2015-Jan-31 05:30 076 2 gusting 4 22.8
2015-Jan-31 05:20 052 4 gusting 6 22.8
2015-Jan-31 05:10 038 2 gusting 4 22.8
2015-Jan-31 05:00 059 2 gusting 4 22.8
2015-Jan-31 04:50 099 2 gusting 6 22.8
2015-Jan-31 04:40 044 2 gusting 5 22.2
2015-Jan-31 04:30 065 1 gusting 2 22.2
2015-Jan-31 04:20 066 2 gusting 4 22.8
2015-Jan-31 04:10 019 4 gusting 6 22.8
2015-Jan-31 04:00 071 3 gusting 5 22.8
2015-Jan-31 03:50 031 2 gusting 5 22.8
2015-Jan-31 03:40 131 3 gusting 5 22.8
2015-Jan-31 03:30 071 1 gusting 7 22.8
2015-Jan-31 03:20 045 5 gusting 8 22.8
2015-Jan-31 03:10 026 5 gusting 6 22.8
2015-Jan-31 03:00 043 3 gusting 6 22.8
2015-Jan-31 02:50 069 2 gusting 4 22.8
2015-Jan-31 02:40 062 4 gusting 5 22.8
2015-Jan-31 02:30 025 6 gusting 10 22.8
2015-Jan-31 02:20 037 6 gusting 6 22.8
2015-Jan-31 02:10 032 6 gusting 10 22.8
2015-Jan-31 02:00 071 4 gusting 7 22.8
2015-Jan-31 01:50 076 2 gusting 7 22.8
2015-Jan-31 01:40 042 4 gusting 10 22.8
2015-Jan-31 01:30 041 5 gusting 6 22.8
2015-Jan-31 01:20 091 5 gusting 8 22.8
2015-Jan-31 01:10 011 6 gusting 10 22.8
2015-Jan-31 01:00 049 4 gusting 6 22.8
2015-Jan-31 00:50 022 4 gusting 6 22.8
2015-Jan-31 00:40 053 2 gusting 6 23.3
2015-Jan-31 00:30 035 4 gusting 10 23.3
2015-Jan-31 00:20 046 5 gusting 10 23.3
2015-Jan-31 00:10 029 4 gusting 6 23.3
2015-Jan-31 00:00 030 3 gusting 10 23.3
2015-Jan-30 23:50 040 4 gusting 7 23.3
2015-Jan-30 23:40 031 7 gusting 10 23.3
2015-Jan-30 23:30 105 2 gusting 8 23.3
2015-Jan-30 23:20 089 5 gusting 13 23.3
2015-Jan-30 23:10 048 8 gusting 12 23.3
2015-Jan-30 23:00 041 7 gusting 11 23.9
2015-Jan-30 22:54 058 8 gusting 12 23.9
2015-Jan-30 22:50 014 11 gusting 12 23.9
2015-Jan-30 22:40 015 6 gusting 14 23.9
2015-Jan-30 22:30 047 5 gusting 8 23.9
2015-Jan-30 22:20 059 6 gusting 13 23.9
2015-Jan-30 22:10 041 6 gusting 13 24.4
2015-Jan-30 22:00 043 7 gusting 13 24.4
2015-Jan-30 21:50 015 7 gusting 10 24.4
2015-Jan-30 21:40 084 9 gusting 14 24.4
2015-Jan-30 21:30 349 5 gusting 8 23.9
2015-Jan-30 21:20 065 4 gusting 13 23.9
2015-Jan-30 21:10 038 10 gusting 13 23.9
2015-Jan-30 21:00 066 6 gusting 13 24.4
2015-Jan-30 20:50 036 7 gusting 11 25.0
2015-Jan-30 20:40 098 5 gusting 13 25.6
2015-Jan-30 20:30 059 7 gusting 11 25.6
2015-Jan-30 20:20 016 8 gusting 11 25.6
2015-Jan-30 20:10 031 7 gusting 13 25.6
2015-Jan-30 20:00 033 6 gusting 10 24.4
2015-Jan-30 19:50 350 5 gusting 7 25.6
2015-Jan-30 19:40 039 10 gusting 11 26.1
2015-Jan-30 19:30 037 6 gusting 13 26.1
2015-Jan-30 19:20 077 5 gusting 8 26.1
2015-Jan-30 19:10 073 6 gusting 10 26.1
2015-Jan-30 19:00 079 6 gusting 8 26.1
2015-Jan-30 18:50 009 6 gusting 8 26.1
2015-Jan-30 18:40 040 4 gusting 8 26.1
2015-Jan-30 18:30 084 6 gusting 8 26.1
2015-Jan-30 18:20 096 4 gusting 12 26.7
2015-Jan-30 18:10 086 6 gusting 13 26.1
2015-Jan-30 18:00 070 2 gusting 10 26.7
2015-Jan-30 17:50 084 4 gusting 10 26.1
2015-Jan-30 17:40 034 6 gusting 8 26.1
2015-Jan-30 17:30 042 7 gusting 10 26.1
2015-Jan-30 17:20 031 9 gusting 10 26.1
2015-Jan-30 17:10 058 9 gusting 10 26.1
2015-Jan-30 17:00 059 10 gusting 11 26.1
2015-Jan-30 16:50 036 7 gusting 12 26.7
2015-Jan-30 16:40 090 5 gusting 10 26.1
2015-Jan-30 16:30 050 8 gusting 8 26.1
2015-Jan-30 16:20 081 4 gusting 10 26.1
2015-Jan-30 16:10 045 6 gusting 12 26.1
2015-Jan-30 16:00 066 6 gusting 8 26.1
2015-Jan-30 15:50 039 7 gusting 10 26.1
2015-Jan-30 15:40 033 7 gusting 12 26.1
2015-Jan-30 15:30 130 6 gusting 8 26.1
2015-Jan-30 15:20 113 6 gusting 8 25.6
2015-Jan-30 15:10 056 6 gusting 10 25.6
2015-Jan-30 15:00 039 5 gusting 8 26.1
2015-Jan-30 14:50 035 4 gusting 6 25.6
2015-Jan-30 14:40 052 5 gusting 8 25.6
2015-Jan-30 14:30 039 7 gusting 10 25.6
2015-Jan-30 14:20 081 7 gusting 10 25.0
2015-Jan-30 14:10 069 5 gusting 8 25.0
2015-Jan-30 14:00 062 7 gusting 10 24.4
2015-Jan-30 13:50 018 6 gusting 6 24.4
2015-Jan-30 13:40 027 5 gusting 8 24.4
2015-Jan-30 13:30 062 2 gusting 5 23.9
2015-Jan-30 13:20 075 2 gusting 4 23.9
2015-Jan-30 13:10 120 2 gusting 4 23.3
2015-Jan-30 13:00 080 4 gusting 6 23.3
2015-Jan-30 12:50 060 1 gusting 4 22.8
2015-Jan-30 12:40 119 2 gusting 6 22.8
2015-Jan-30 12:30 114 4 gusting 4 22.8
2015-Jan-30 12:20 084 2 gusting 2 22.8
2015-Jan-30 12:10 064 4 gusting 5 22.8
2015-Jan-30 12:00 073 4 gusting 11 22.8
2015-Jan-30 11:50 077 4 gusting 7 22.8
2015-Jan-30 11:40 094 5 gusting 8 22.8
2015-Jan-30 11:30 068 6 gusting 6 22.8
2015-Jan-30 11:10 072 2 gusting 6 22.8
2015-Jan-30 11:00 095 5 gusting 5 22.8
2015-Jan-30 10:50 017 3 gusting 8 22.8
2015-Jan-30 10:40 101 7 gusting 7 22.8
2015-Jan-30 10:30 077 5 gusting 6 23.3
2015-Jan-30 10:20 097 4 gusting 6 22.8
2015-Jan-30 10:10 053 5 gusting 6 23.3
2015-Jan-30 10:00 053 5 gusting 7 23.3
2015-Jan-30 09:50 071 6 gusting 6 23.3
2015-Jan-30 09:40 091 6 gusting 7 22.8
2015-Jan-30 09:30 065 3 gusting 5 23.3
2015-Jan-30 09:20 066 3 gusting 6 22.8
2015-Jan-30 09:10 109 1 gusting 6 22.8
2015-Jan-30 09:00 061 5 gusting 6 23.3
2015-Jan-30 08:50 081 5 gusting 7 22.8
2015-Jan-30 08:40 095 4 gusting 6 22.8
2015-Jan-30 08:30 093 2 gusting 6 22.8
2015-Jan-30 08:20 054 1 gusting 7 23.3
2015-Jan-30 08:10 017 4 gusting 7 22.8
2015-Jan-30 08:00 029 4 gusting 6 22.8
2015-Jan-30 07:50 090 2 gusting 10 22.8
2015-Jan-30 07:40 039 4 gusting 8 22.8
2015-Jan-30 07:30 055 4 gusting 6 22.8
2015-Jan-30 07:20 071 6 gusting 7 23.3
2015-Jan-30 07:10 109 1 gusting 7 23.3
2015-Jan-30 07:00 051 3 gusting 8 23.3
2015-Jan-30 06:50 019 7 gusting 11 23.3
2015-Jan-30 06:40 076 5 gusting 11 23.3
2015-Jan-30 06:30 074 4 gusting 6 23.3
2015-Jan-30 06:20 083 6 gusting 8 23.3
2015-Jan-30 06:10 038 6 gusting 8 23.3
2015-Jan-30 06:00 086 2 gusting 8 23.3
2015-Jan-30 05:50 048 6 gusting 7 23.3
2015-Jan-30 05:40 050 1 gusting 4 23.3
2015-Jan-30 05:30 086 5 gusting 7 23.3
2015-Jan-30 05:20 063 3 gusting 6 23.3
2015-Jan-30 05:10 090 4 gusting 6 23.3
2015-Jan-30 05:00 068 4 gusting 5 22.8
2015-Jan-30 04:50 047 2 gusting 6 22.8
2015-Jan-30 04:40 063 2 gusting 5 22.8
2015-Jan-30 04:30 095 3 gusting 6 22.8
2015-Jan-30 04:20 062 3 gusting 5 22.8
2015-Jan-30 04:10 105 3 gusting 5 22.8
2015-Jan-30 04:00 061 1 gusting 4 22.8
2015-Jan-30 03:50 075 4 gusting 6 22.8
2015-Jan-30 03:40 039 1 gusting 4 22.8
2015-Jan-30 03:30 058 4 gusting 6 22.8
2015-Jan-30 03:20 067 2 gusting 4 22.8
2015-Jan-30 03:10 063 3 gusting 6 22.8
2015-Jan-30 03:00 062 3 gusting 6 22.8
2015-Jan-30 02:50 063 2 gusting 5 22.8
2015-Jan-30 02:40 070 4 gusting 6 22.8
2015-Jan-30 02:30 075 4 gusting 6 22.8
2015-Jan-30 02:20 048 1 gusting 5 22.8
2015-Jan-30 02:10 044 2 gusting 6 22.8
2015-Jan-30 02:00 085 2 gusting 6 22.8
2015-Jan-30 01:50 108 2 gusting 6 22.8
2015-Jan-30 01:40 077 2 gusting 6 22.8
2015-Jan-30 01:30 078 4 gusting 11 22.8
2015-Jan-30 01:20 086 4 gusting 8 22.8
2015-Jan-30 01:10 089 6 gusting 6 22.8
2015-Jan-30 01:00 097 5 gusting 10 22.8
2015-Jan-30 00:50 039 3 gusting 6 22.8
2015-Jan-30 00:40 063 2 gusting 6 22.8
2015-Jan-30 00:30 085 5 gusting 8 22.8
2015-Jan-30 00:20 027 2 gusting 8 22.8
2015-Jan-30 00:10 054 5 gusting 7 22.8
2015-Jan-30 00:00 050 6 gusting 7 22.8
2015-Jan-29 23:50 041 5 gusting 7 22.8
2015-Jan-29 23:40 054 6 gusting 6 22.8
2015-Jan-29 23:30 012 4 gusting 7 22.8
2015-Jan-29 23:20 077 4 gusting 10 22.8
2015-Jan-29 23:10 063 6 gusting 6 22.8
2015-Jan-29 23:00 098 2 gusting 6 22.8
2015-Jan-29 22:54 025 6 gusting 8 23.3
2015-Jan-29 22:50 078 8 gusting 10 23.3
2015-Jan-29 22:40 102 7 gusting 11 23.3
2015-Jan-29 22:30 084 11 gusting 13 23.3
2015-Jan-29 22:20 058 4 gusting 8 23.3
2015-Jan-29 22:10 090 11 gusting 12 23.3
2015-Jan-29 22:00 027 5 gusting 7 23.9
2015-Jan-29 21:50 087 6 gusting 8 24.4
2015-Jan-29 21:40 060 5 gusting 12 23.9
2015-Jan-29 21:30 060 8 gusting 10 24.4
2015-Jan-29 21:20 054 9 gusting 11 24.4
2015-Jan-29 21:10 076 6 gusting 12 24.4
2015-Jan-29 21:00 100 5 gusting 13 24.4